Observations for Trim Market St
| Time | AQI | Temp °C | Hum % | Pres Pa | CO μg/m³ | H₂S μg/m³ | NO μg/m³ | NO₂ μg/m³ | O₃ μg/m³ | SO₂ μg/m³ | PM1 μg/m³ | PM2.5 μg/m³ | PM10 μg/m³ |
|---|---|---|---|---|---|---|---|---|---|---|---|---|---|
| Tuesday 11 August 2026 | |||||||||||||
| 20:29 | 3 | 27.2 | 36 | 66,023 | 0 | 11.93 | 0.83 | 34.74 | 57.26 | 0 | 2.85 | 6.24 | 6.7 |
| 20:28 | 3 | 27.2 | 36 | 66,011 | 0 | 12.89 | 0.84 | 36.01 | 54.31 | 0 | 3.56 | 6.25 | 7.53 |
| 20:27 | 3 | 27.2 | 36 | 65,995 | 0 | 13.77 | 0.85 | 47.53 | 50.99 | 0 | 3.56 | 8.39 | 10.84 |
| 20:26 | 3 | 27.3 | 36 | 66,001 | 0 | 10.75 | 0.84 | 40.53 | 58.61 | 0 | 2.14 | 5.2 | 5.72 |
| 20:25 | 3 | 27.3 | 36 | 66,009 | 0 | 9.52 | 0.84 | 32.94 | 57.33 | 0 | 3.56 | 5.74 | 6.7 |
| 20:24 | 3 | 27.3 | 36 | 66,025 | 0 | 10.22 | 0.87 | 33.58 | 58.38 | 0 | 2.14 | 5.21 | 5.73 |
| 20:23 | 3 | 27.3 | 36 | 66,013 | 0 | 10.94 | 0.86 | 34.19 | 58.84 | 0 | 3.56 | 6.29 | 6.69 |
| 20:14 | 3 | 27.6 | 34 | 66,025 | 0 | 7.45 | 0.82 | 31.57 | 56.51 | 0 | 2.14 | 6.35 | 6.69 |
| 20:13 | 3 | 27.6 | 34 | 66,035 | 0 | 7.85 | 0.83 | 40.43 | 51.73 | 0 | 2.14 | 5.82 | 6.69 |
| 20:11 | 3 | 27.6 | 34 | 66,037 | 0 | 6.68 | 0.83 | 40.16 | 50.19 | 0 | 2.14 | 4.75 | 5.23 |
| 20:09 | 3 | 27.7 | 34 | 66,035 | 0 | 6.68 | 0.82 | 27.54 | 58.06 | 0 | 0.71 | 4.76 | 5.23 |
| 20:05 | 3 | 27.8 | 34 | 66,068 | 0 | 7.36 | 0.81 | 32 | 56.54 | 0 | 2.14 | 5.85 | 6.43 |
| 20:04 | 3 | 27.8 | 34 | 66,096 | 0 | 8.54 | 0.81 | 34.92 | 56.08 | 0 | 1.43 | 5.31 | 5.84 |
| 20:03 | 3 | 27.8 | 33 | 66,100 | 0 | 7.87 | 0.82 | 29.45 | 57.95 | 0 | 2.14 | 5.32 | 5.85 |
| 20:02 | 3 | 27.9 | 33 | 66,102 | 0 | 6.72 | 0.8 | 25.75 | 59.82 | 0 | 2.14 | 4.78 | 5.26 |
| 19:59 | 3 | 27.9 | 33 | 66,076 | 0 | 9.07 | 0.82 | 26.44 | 58.83 | 0 | 2.14 | 4.79 | 4.99 |
| 19:58 | 3 | 28 | 33 | 66,100 | 0 | 9.63 | 0.8 | 27.88 | 61.96 | 0 | 2.85 | 6.4 | 6.68 |
| 19:57 | 3 | 28 | 33 | 66,104 | 0 | 8.21 | 0.8 | 25.8 | 60.92 | 0 | 1.43 | 4.79 | 5.27 |
| 19:56 | 3 | 28 | 33 | 66,082 | 0 | 8.05 | 0.8 | 27.36 | 59.68 | 0 | 2.14 | 4.8 | 5.28 |
| 19:54 | 3 | 28.1 | 33 | 66,113 | 0 | 8.45 | 0.78 | 25.81 | 59.54 | 0 | 2.85 | 5.34 | 6.68 |